| time (UTC) | temp F | wind direction | speed knots | gust knots | rain 1hr in | rain 24hr in | rain mn in | humidity % | barometer mb |
| 20260502151530 | 50 | 69 | 2.6 | 7.0 | 0.00 | 0.00 | 0.00 | 41 | 1019.4 |
| 20260502123040 | 35 | 294 | 3.5 | 6.1 | 0.00 | 0.00 | 0.00 | 63 | 1019.6 |
| 20260502121522 | 34 | 291 | 2.6 | 4.3 | 0.00 | 0.00 | 0.00 | 65 | 1019.6 |
| 20260502114519 | 35 | 285 | 4.3 | 7.0 | 0.00 | 0.00 | 0.00 | 62 | 1019.4 |
| 20260502113015 | 35 | 280 | 4.3 | 6.1 | 0.00 | 0.00 | 0.00 | 61 | 1019.5 |
| 20260502111515 | 35 | 298 | 5.2 | 7.8 | 0.00 | 0.00 | 0.00 | 61 | 1019.7 |
| 20260502110013 | 35 | 291 | 3.5 | 6.1 | 0.00 | 0.00 | 0.00 | 63 | 1019.7 |
| 20260502104511 | 36 | 301 | 2.6 | 6.1 | 0.00 | 0.00 | 0.00 | 59 | 1019.7 |
| 20260502103012 | 36 | 297 | 2.6 | 4.3 | 0.00 | 0.00 | 0.00 | 60 | 1019.7 |
| 20260502101507 | 38 | 296 | 3.5 | 6.1 | 0.00 | 0.00 | 0.00 | 57 | 1019.8 |
| 20260502091503 | 38 | 277 | 4.3 | 7.0 | 0.00 | 0.00 | 0.00 | 58 | 1019.8 |
| 20260502070050 | 40 | 290 | 4.3 | 6.1 | 0.00 | 0.00 | 0.00 | 56 | 1020.5 |
| 20260502064551 | 41 | 299 | 5.2 | 7.8 | 0.00 | 0.00 | 0.00 | 54 | 1020.5 |
| 20260502063057 | 41 | 296 | 4.3 | 7.8 | 0.00 | 0.00 | 0.00 | 54 | 1020.5 |
| 20260502061546 | 41 | 290 | 4.3 | 7.0 | 0.00 | 0.00 | 0.00 | 58 | 1020.6 |
| 20260502060146 | 42 | 296 | 1.7 | 4.3 | 0.00 | 0.00 | 0.00 | 54 | 1020.5 |
| 20260502054545 | 42 | 302 | 2.6 | 4.3 | 0.00 | 0.00 | 0.00 | 56 | 1020.6 |
| 20260502053015 | 43 | 271 | 2.6 | 6.1 | 0.00 | 0.00 | 0.00 | 56 | 1020.5 |
| 20260502051522 | 44 | 286 | 0.9 | 3.5 | 0.00 | 0.00 | 0.00 | 53 | 1020.5 |
| 20260502050028 | 45 | 274 | 3.5 | 6.1 | 0.00 | 0.00 | 0.00 | 48 | 1020.6 |
| 20260502044512 | 46 | 239 | 0.0 | 1.7 | 0.00 | 0.00 | 0.00 | 39 | 1020.6 |
| 20260502043010 | 47 | 84 | 0.0 | 0.0 | 0.00 | 0.00 | 0.00 | 39 | 1020.5 |
| 20260502041513 | 47 | 110 | 0.0 | 0.0 | 0.00 | 0.00 | 0.00 | 40 | 1020.7 |
| 20260502040012 | 48 | 111 | 0.0 | 0.0 | 0.00 | 0.00 | 0.00 | 38 | 1020.6 |
| 20260502034511 | 49 | 111 | 0.0 | 0.9 | 0.00 | 0.00 | 0.00 | 35 | 1020.5 |
| 20260502033015 | 49 | 82 | 0.9 | 1.7 | 0.00 | 0.00 | 0.00 | 37 | 1020.3 |
| 20260502031506 | 50 | 92 | 0.0 | 0.9 | 0.00 | 0.00 | 0.00 | 35 | 1020.2 |
| 20260502030015 | 50 | 91 | 0.0 | 2.6 | 0.00 | 0.00 | 0.00 | 35 | 1020.1 |
| 20260502024502 | 53 | 132 | 1.7 | 3.5 | 0.00 | 0.00 | 0.00 | 30 | 1019.8 |
| 20260502023002 | 55 | 158 | 1.7 | 3.5 | 0.00 | 0.00 | 0.00 | 29 | 1019.6 |
| 20260502021606 | 56 | 133 | 1.7 | 5.2 | 0.00 | 0.00 | 0.00 | 28 | 1019.4 |
| 20260502020100 | 57 | 125 | 1.7 | 5.2 | 0.00 | 0.00 | 0.00 | 27 | 1019.4 |
| 20260502014557 | 59 | 115 | 1.7 | 6.1 | 0.00 | 0.00 | 0.00 | 25 | 1019.2 |
| 20260502013055 | 60 | 156 | 4.3 | 7.0 | 0.00 | 0.00 | 0.00 | 23 | 1019.0 |
| 20260502011554 | 60 | 148 | 2.6 | 7.8 | 0.00 | 0.00 | 0.00 | 22 | 1019.0 |
| 20260502004603 | 62 | 84 | 6.1 | 9.6 | 0.00 | 0.00 | 0.00 | 21 | 1019.1 |
| 20260502003049 | 62 | 87 | 1.7 | 6.1 | 0.00 | 0.00 | 0.00 | 19 | 1019.1 |
| 20260502001547 | 61 | 84 | 7.0 | 12.2 | 0.00 | 0.00 | 0.00 | 20 | 1019.1 |
| 20260502000050 | 63 | 86 | 0.9 | 8.7 | 0.00 | 0.00 | 0.00 | 17 | 1019.1 |
| 20260501234515 | 62 | 92 | 6.1 | 11.3 | 0.00 | 0.00 | 0.00 | 19 | 1019.2 |
| 20260501233014 | 62 | 106 | 2.6 | 10.4 | 0.00 | 0.00 | 0.00 | 17 | 1019.3 |
| 20260501231516 | 62 | 96 | 2.6 | 6.1 | 0.00 | 0.00 | 0.00 | 20 | 1019.5 |
| 20260501230007 | 62 | 279 | 0.0 | 3.5 | 0.00 | 0.00 | 0.00 | 22 | 1019.4 |
| 20260501224505 | 60 | 116 | 4.3 | 9.6 | 0.00 | 0.00 | 0.00 | 22 | 1019.4 |
| 20260501223008 | 61 | 107 | 1.7 | 8.7 | 0.00 | 0.00 | 0.00 | 22 | 1019.6 |
| 20260501221600 | 60 | 39 | 3.5 | 10.4 | 0.00 | 0.00 | 0.00 | 21 | 1019.8 |
| 20260501220104 | 60 | 71 | 6.1 | 11.3 | 0.00 | 0.00 | 0.00 | 23 | 1019.9 |
| 20260501214556 | 60 | 88 | 1.7 | 8.7 | 0.00 | 0.00 | 0.00 | 21 | 1020.1 |
| 20260501213056 | 60 | 26 | 2.6 | 7.8 | 0.00 | 0.00 | 0.00 | 22 | 1020.5 |
| 20260501211558 | 60 | 138 | 3.5 | 9.6 | 0.00 | 0.00 | 0.00 | 23 | 1020.8 |
| 20260501210051 | 60 | 100 | 4.3 | 13.0 | 0.00 | 0.00 | 0.00 | 24 | 1020.9 |
| 20260501204546 | 59 | 47 | 5.2 | 12.2 | 0.00 | 0.00 | 0.00 | 24 | 1021.0 |
| 20260501203045 | 59 | 80 | 7.0 | 13.0 | 0.00 | 0.00 | 0.00 | 24 | 1021.0 |
| 20260501201542 | 59 | 108 | 2.6 | 10.4 | 0.00 | 0.00 | 0.00 | 25 | 1021.1 |
| 20260501200040 | 59 | 118 | 2.6 | 7.0 | 0.00 | 0.00 | 0.00 | 24 | 1021.1 |
| 20260501194540 | 59 | 19 | 6.1 | 13.0 | 0.00 | 0.00 | 0.00 | 26 | 1021.2 |
| 20260501193037 | 59 | 114 | 1.7 | 7.8 | 0.00 | 0.00 | 0.00 | 23 | 1021.2 |
| 20260501191534 | 58 | 139 | 1.7 | 7.8 | 0.00 | 0.00 | 0.00 | 27 | 1021.4 |
| 20260501190032 | 58 | 111 | 2.6 | 8.7 | 0.00 | 0.00 | 0.00 | 26 | 1021.4 |
| 20260501184530 | 58 | 251 | 0.9 | 8.7 | 0.00 | 0.00 | 0.00 | 26 | 1021.5 |
| 20260501183029 | 57 | 105 | 0.9 | 7.0 | 0.00 | 0.00 | 0.00 | 28 | 1021.8 |
| 20260501181559 | 57 | 73 | 1.7 | 8.7 | 0.00 | 0.00 | 0.00 | 26 | 1022.0 |
| 20260501180112 | 57 | 126 | 0.9 | 4.3 | 0.00 | 0.00 | 0.00 | 27 | 1022.0 |
| 20260501174549 | 56 | 62 | 1.7 | 5.2 | 0.00 | 0.00 | 0.00 | 27 | 1022.1 |
| 20260501173049 | 54 | 218 | 2.6 | 10.4 | 0.00 | 0.00 | 0.00 | 28 | 1022.2 |
| 20260501171544 | 54 | 117 | 0.9 | 11.3 | 0.00 | 0.00 | 0.00 | 27 | 1022.3 |
| 20260501170050 | 53 | 50 | 0.0 | 5.2 | 0.00 | 0.00 | 0.00 | 28 | 1022.4 |
| 20260501164610 | 53 | 71 | 3.5 | 6.1 | 0.00 | 0.00 | 0.00 | 29 | 1022.4 |
| 20260501163007 | 53 | 44 | 0.9 | 7.8 | 0.00 | 0.00 | 0.00 | 31 | 1022.6 |
| 20260501161507 | 53 | 76 | 0.0 | 5.2 | 0.00 | 0.00 | 0.00 | 30 | 1022.6 |